Regional Weather Roundup
Issued by NWS

Home | Current Version | Previous Version | Graphics & Text | Print | Product List | Glossary On
Versions: 1 2 3 4 5 6 7 8 9 10 11 12 13 14 15 16 17 18 19 20 21 22 23 24 25 26 27 28 29 30 31 32 33 34 35 36 37 38 39 40 41 42 43 44 45 46 47 48 49 50
000
ASUS43 KDMX 091708
RWRIA

WEATHER ROUNDUP FOR IOWA
NATIONAL WEATHER SERVICE DES MOINES IA
1100 AM CST TUE FEB 09 2016

NOTE: "FAIR" INDICATES FEW OR NO CLOUDS BELOW 12,000 FEET WITH NO
SIGNIFICANT WEATHER AND/OR OBSTRUCTIONS TO VISIBILITY.

* - THESE STATIONS ARE NOT NWS STATIONS...THUS NOT UNDER NWS
QUALITY CONTROL.  THEY ALSO DO NOT REPORT WEATHER SUCH
AS PRECIPITATION OR FOG.

IAZ001>003-012>014-020>022-031>034-043>046-091800-
   NORTHWEST IOWA

CITY           SKY/WX    TMP DP  RH WIND       PRES   REMARKS
CARROLL *      SUNNY     12   5  73 NW25G35   30.18R WCI  -8
CHEROKEE *     MOSUNNY   10   3  72 N20       30.23R WCI  -8
DENISON *      SUNNY     10   3  72 N20G26    30.20S WCI  -8
LE MARS *      SUNNY     12   5  73 N15       30.28R WCI  -4
ORANGE CITY *  SUNNY     10   3  72 N17       30.23R WCI  -7
SHELDON *      SUNNY      9   1  72 N22       30.22R WCI -11
SIOUX CITY     SUNNY     15   4  61 NW17      30.28R WCI  -1
SPENCER        SUNNY     10   1  67 NW22      30.20R WCI -10
STORM LAKE *   SUNNY     10   3  72 N26       30.18R WCI -11
$$

IAZ055>058-069>071-079>083-090>094-091800-
   SOUTHWEST IOWA

CITY           SKY/WX    TMP DP  RH WIND       PRES   REMARKS
ATLANTIC *     SUNNY     12   3  67 N20G26    30.22R WCI  -6
AUDUBON *      SUNNY     12   3  67 NW20G30   30.18R WCI  -6
CLARINDA *     PTSUNNY   16   7  67 N22       30.25R WCI  -2
COUNCIL BLFS * SUNNY     14   5  67 NW18      30.24R WCI  -3
CRESTON *      MOSUNNY   12   3  67 NW24      30.17R WCI  -8
HARLAN  *      SUNNY     12   5  73 N28G36    30.24R WCI  -9
LAMONI         SUNNY     16   5  62 NW17G28   30.14R WCI   0
RED OAK *      SUNNY     16   7  67 N23G31    30.24R WCI  -2
SHENANDOAH *   CLOUDY    18   9  68 N23       30.27R WCI   0
$$

IAZ047>049-059>061-072>074-084-091800-
   CENTRAL IOWA

CITY           SKY/WX    TMP DP  RH WIND       PRES   REMARKS
AMES           MOSUNNY   11   2  67 N26G36    30.14R WCI -10
ANKENY *       CLOUDY    12   5  73 NW14G21   30.15R WCI  -3
BOONE *        MOSUNNY   10   1  67 N24G32    30.12R WCI -10
CHARITON *     PTSUNNY   14   5  67 NW18G25   30.12R WCI  -3
DES MOINES     MOSUNNY   13   3  64 NW20G26   30.15R WCI  -5
GRINNELL*      MOSUNNY   12   5  73 NW23G29   30.08R WCI  -7
KNOXVILLE *    PTSUNNY   14   3  62 NW20G30   30.10R WCI  -3
MARSHALLTOWN   PTSUNNY   10   2  69 NW24      30.09R WCI -10
NEWTON *       FLURRIES  10   5  79 N25G32    30.10S WCI -10
PELLA *        MOSUNNY   14   5  67 NW21G30   30.12R WCI  -4
$$

IAZ004>006-015-016-023>025-035-036-091800-
   NORTH CENTRAL IOWA

CITY           SKY/WX    TMP DP  RH WIND       PRES   REMARKS
ALGONA *       PTSUNNY   10   3  72 N21G31    30.14R WCI  -9
CLARION *      CLOUDY     9   1  72 N26G37    30.12R WCI -13
ESTHERVILLE    SUNNY      8   2  76 NW24      30.16R WCI -13
FORT DODGE *   PTSUNNY   10   1  67 N15G23    30.16R WCI  -6
MASON CITY     CLOUDY     8   1  73 NW24      30.10R WCI -13
FOREST CITY *  MOSUNNY    9   3  78 NW24G33   30.10R WCI -12
WEBSTER CITY * FLURRIES  10   3  72 NW32      30.12R WCI -12
IOWA FALLS *   CLOUDY    10   3  72 NW29G36   30.10R HAZE    WCI -11
$$

IAZ007>011-017>019-026>030-037>042-050>054-066-091800-
   NORTHEAST IOWA

CITY           SKY/WX    TMP DP  RH WIND       PRES   REMARKS
CEDAR RAPIDS   PTSUNNY   12   4  70 NW25      30.02R WCI  -8
CHARLES CITY * CLOUDY     9   1  72 N21G29    30.06R WCI -11
CLINTON *      CLOUDY    15   7  70 NW17      29.96S WCI  -1
DECORAH *      PTSUNNY    9   0  66 N20G26    29.99R WCI -11
DUBUQUE        SUNNY     11   3  70 N15       29.94  WCI  -5
MONTICELLO *   MOSUNNY   14   3  62 NW17G25   29.99S WCI  -3
OELWEIN *      CLOUDY     9   1  72 NW21      30.03R HAZE    WCI -11
WATERLOO       CLOUDY     9   2  73 NW22      30.06R HAZE    WCI -11
$$

IAZ064-065-067-068-078-091800-
   EAST CENTRAL IOWA

CITY           SKY/WX    TMP DP  RH WIND       PRES   REMARKS
DAVENPORT      MOSUNNY   15   5  64 NW21      29.98R WCI  -2
IOWA CITY      LGT SNOW  14   6  70 NW21G29   30.05R WCI  -4
MT. PLEASANT * CLOUDY    18   9  68 NW15G26   30.04R WCI   3
MUSCATINE *    CLOUDY    16   7  67 NW24      30.04R WCI  -3
QUAD CITIES    CLOUDY    16   5  62 NW15      29.98R WCI   1
$$

IAZ062-063-075>077-085>089-095>099-091800-
   SOUTHEAST IOWA

CITY           SKY/WX    TMP DP  RH WIND       PRES   REMARKS
BURLINGTON     LGT SNOW  16   9  74 NW17G23   30.01R WCI   0
FAIRFIELD *    FLURRIES  14   5  67 NW23G30   30.06R WCI  -5
FORT MADISON * CLOUDY    18   9  68 NW21      30.02S WCI   1
KEOKUK *       FLURRIES  18  10  73 NW14G26   30.04R WCI   4
OSKALOOSA *    CLOUDY    14   7  73 NW21G29   30.10R HAZE    WCI  -4
CENTERVILLE *  PTSUNNY   18   9  68 NW21G28   30.10R WCI   1
OTTUMWA        LGT SNOW  13   6  74 NW25      30.09R WCI  -7
WASHINGTON *   LGT SNOW  14   7  73 NW25      30.06R WCI  -5
$$

ABBREVIATIONS USED IN REMARKS
   TC - TEMPERATURES IN CELSIUS
  WCI - WIND CHILL INDEX
   HX - HEAT INDEX
  VSB - VISIBILITY
$$




USA.gov is the U.S. government's official web portal to all federal, state and local government web resources and services.